Wind_Speed
5 4 5 5 4 3 2 1 0 1 1 2 3 3 3 3 3 2 3 3 3 3 3 3 3 3 4 4 4 5 5 5 6 6 6 6 6 6 6 6 6 6 6
5 5 5 4 3 3 2 1 1 1 1 2 3 3 3 4 3 4 3 3 4 3 3 4 4 4 4 4 5 5 5 5 6 6 7 7 7 7 7 6 6 7 7
5 5 5 5 3 3 2 1 1 1 1 2 2 3 3 4 4 4 4 4 4 4 4 5 5 5 5 5 5 6 6 6 6 6 7 7 8 8 8 8 7 7 7
6 5 5 5 4 3 2 1 0 1 2 2 3 3 4 4 5 5 5 5 5 5 5 5 5 5 5 6 6 6 7 7 7 7 8 8 9 9 9 9 9 8 8
6 6 5 5 4 3 2 1 0 1 2 3 3 4 5 5 6 6 6 6 6 6 6 5 6 6 6 7 7 7 7 7 8 9 9 8 9 10 9 9 9 9 9
7 6 6 5 4 3 2 1 0 2 2 3 3 5 6 6 7 7 7 7 7 6 6 6 6 7 7 7 7 8 8 8 9 9 9 8 9 10 10 10 9 9 9
8 7 6 4 4 3 2 1 1 2 2 3 4 6 7 7 7 8 8 8 8 8 7 7 7 7 7 7 8 8 9 9 9 9 9 9 9 10 11 10 10 9 9
8 7 6 5 4 3 2 2 1 2 3 4 5 6 7 7 8 8 8 9 9 8 8 7 7 7 7 8 8 8 9 9 9 9 9 9 9 10 11 10 11 11 10
8 7 6 5 4 3 2 1 1 2 3 5 6 7 7 8 8 8 9 9 9 8 8 7 7 7 7 7 8 8 8 9 9 10 10 10 10 10 11 11 11 12 11
9 8 6 5 4 3 2 1 2 3 4 5 6 7 7 8 8 8 9 9 9 8 8 7 6 6 6 7 7 8 8 9 9 10 10 10 11 11 11 11 11 12 12
9 8 7 5 5 4 2 2 3 4 5 6 6 7 8 8 8 9 9 9 9 9 8 7 6 6 6 7 7 8 8 8 9 9 10 10 11 11 11 12 12 12 12
9 8 7 6 5 4 3 2 3 4 5 6 6 7 8 8 8 9 9 9 9 9 8 7 7 7 7 7 8 8 9 8 8 8 9 10 10 11 11 12 12 12 12
9 9 8 7 6 4 3 3 3 4 5 5 6 7 8 9 9 9 10 9 9 9 8 8 7 7 7 7 7 7 8 8 8 8 8 9 10 10 10 11 12 13 13
9 9 8 7 6 4 3 3 4 4 5 6 7 8 8 9 9 9 9 9 9 9 8 8 7 7 6 6 6 7 7 8 8 8 8 9 9 9 10 11 12 13 13
9 8 8 6 5 4 3 3 4 4 5 6 7 8 8 8 9 9 9 9 9 9 8 8 7 6 5 5 5 6 6 7 7 8 8 8 9 9 9 10 11 12 13
9 8 7 5 5 4 4 4 4 4 5 6 7 8 8 8 9 9 9 10 9 9 8 7 6 6 5 5 4 5 5 6 6 7 8 8 8 8 9 10 11 12 13
10 9 7 5 4 4 4 4 4 4 5 6 7 8 8 8 9 9 9 10 10 9 8 7 7 6 5 4 4 4 4 4 5 6 7 7 8 8 9 9 10 11 12
9 9 8 6 5 4 4 3 3 4 5 6 7 8 8 8 9 9 9 9 10 9 8 7 7 6 5 4 3 3 3 3 4 5 6 7 8 8 9 9 9 10 11
9 8 7 6 5 4 3 3 3 4 5 6 6 7 7 8 8 9 9 9 9 9 9 8 7 6 5 3 2 2 2 3 4 4 5 6 7 7 8 9 9 10 10
10 9 8 7 6 4 3 3 3 4 4 5 6 7 7 8 8 8 8 9 9 9 9 8 7 6 4 3 2 2 2 2 3 4 4 5 6 7 8 9 9 9 10
10 10 8 8 6 5 4 3 3 3 4 4 5 6 7 7 8 8 8 8 8 8 8 8 7 6 4 3 3 2 2 2 3 4 4 5 5 6 7 8 9 10 11
10 9 8 7 6 5 3 3 3 3 3 4 5 5 6 7 7 7 8 8 8 8 7 7 7 7 5 3 3 3 2 2 2 3 4 4 5 5 6 8 9 10 10
10 9 8 7 6 5 4 3 3 3 3 4 4 5 5 6 6 7 7 7 8 7 7 7 7 7 6 5 4 4 3 2 2 2 3 3 4 4 6 7 8 9 10
10 9 8 7 6 6 6 5 4 3 3 3 4 4 5 6 6 6 7 7 8 7 7 7 7 7 6 5 5 5 4 3 3 3 2 2 3 4 5 6 8 9 9
11 10 9 8 7 6 6 6 4 3 3 3 3 3 4 5 6 6 7 7 7 7 7 7 7 7 7 7 6 6 5 4 4 3 3 2 3 3 4 5 6 7 7
12 11 10 9 7 6 6 6 5 4 4 3 3 3 3 4 5 5 6 6 6 7 7 7 7 7 7 7 7 7 6 5 5 4 4 4 3 3 4 4 5 6 6
Wind_Direction
187 182 178 177 182 186 190 213 339 352 346 354 4 357 338 335 344 350 337 326 318 314 313 298 290 275 265 255 247 238 231 228 222 218 218 214 208 202 198 196 191 186 184
185 181 183 185 189 191 200 228 274 319 344 351 1 5 359 355 357 350 348 335 320 313 303 293 288 281 273 268 257 245 237 231 228 225 222 220 216 212 208 205 203 191 194
197 197 195 197 200 204 211 242 243 335 354 12 10 11 3 3 357 351 344 336 328 317 306 293 283 280 276 274 262 254 244 236 230 229 227 224 222 218 215 212 208 200 202
206 202 204 204 208 209 206 203 123 12 18 7 356 2 0 358 353 346 343 340 329 323 309 296 283 280 274 271 266 259 251 246 237 233 230 226 224 221 218 217 215 208 206
208 210 211 210 210 202 199 193 58 14 9 7 358 355 354 351 350 348 343 337 329 321 312 297 286 280 274 268 264 258 253 249 242 239 233 230 225 224 221 221 219 213 210
213 215 213 214 206 194 185 185 284 1 359 359 352 349 347 343 344 344 340 333 328 320 311 301 290 281 276 268 261 257 253 250 245 241 234 231 227 226 225 224 222 219 213
215 215 214 212 207 200 199 209 279 335 346 350 347 347 348 347 344 339 336 331 326 319 310 300 292 283 276 268 260 255 251 249 244 239 236 236 232 229 227 226 225 222 216
215 215 215 211 208 204 203 220 287 318 335 341 342 345 346 345 341 338 336 332 328 323 316 306 295 287 279 268 261 256 251 248 243 239 240 237 233 233 228 230 227 223 221
215 217 217 215 218 212 204 231 301 318 330 338 341 342 344 343 342 341 338 335 331 325 318 309 299 287 280 268 261 258 253 249 245 242 243 240 236 234 232 232 231 226 223
211 216 215 210 214 212 211 269 303 321 329 335 338 339 341 342 341 339 339 340 337 330 321 314 304 291 280 270 265 261 255 252 248 244 242 239 236 234 233 233 234 229 226
214 218 219 215 213 212 235 269 304 319 325 333 336 337 339 340 338 338 339 340 338 333 324 316 307 295 282 273 266 261 257 253 249 245 241 238 235 235 235 235 233 229 226
217 220 219 217 217 225 243 271 302 316 325 332 334 335 336 336 336 337 338 337 336 333 328 317 305 297 285 275 266 260 256 252 248 244 240 238 235 235 235 234 230 226 225
218 221 220 217 224 228 237 275 300 314 324 330 333 335 335 335 335 335 336 334 333 332 329 323 313 300 288 279 270 262 255 249 247 242 239 237 234 235 238 237 232 228 226
220 220 222 220 227 229 243 277 303 315 323 330 332 333 335 335 334 334 336 333 331 331 328 324 316 305 292 281 272 263 256 250 246 241 239 237 236 238 241 238 235 230 228
219 217 217 216 228 233 250 276 306 318 328 332 333 335 337 337 335 335 339 339 335 331 328 325 322 315 301 286 275 263 256 251 247 242 240 240 239 239 238 237 237 232 230
217 217 215 221 233 242 259 282 305 318 329 332 335 337 339 340 338 338 343 346 343 338 334 329 327 322 312 298 282 268 259 251 246 242 239 240 241 241 239 238 237 234 232
217 216 212 224 233 246 262 282 304 317 331 335 335 337 339 341 343 343 344 348 349 345 338 334 332 328 323 313 295 274 262 252 247 244 242 242 243 245 244 239 236 232 230
217 218 217 226 237 251 263 284 306 320 331 334 336 338 339 341 345 346 347 351 352 351 348 344 341 338 333 323 305 278 261 262 259 252 249 247 246 245 245 243 239 234 231
221 221 220 224 236 249 260 278 304 320 328 332 337 341 341 343 347 349 350 353 353 355 356 354 348 344 342 340 332 303 276 268 259 256 257 257 250 244 246 247 244 237 234
223 224 221 222 230 238 252 277 302 318 328 334 340 343 343 345 348 350 353 355 357 359 360 0 358 355 355 356 355 337 307 278 260 256 264 266 256 249 247 248 246 242 239
220 224 224 219 223 235 245 268 290 306 320 330 336 342 347 349 351 352 355 0 3 2 1 3 6 8 8 8 4 348 323 295 275 268 269 268 260 255 252 251 251 250 247
214 217 219 218 219 235 247 267 285 297 311 322 332 340 347 351 353 356 2 5 6 6 8 10 11 15 18 19 14 1 345 315 297 286 276 268 264 260 257 255 254 256 256
213 214 216 221 228 241 251 265 277 291 301 316 333 341 349 354 357 4 7 8 7 9 11 13 15 16 19 19 15 9 0 346 335 309 282 271 266 266 265 261 258 260 260
216 218 221 226 234 244 246 251 259 274 288 306 325 338 344 351 358 359 3 6 8 9 12 14 17 20 22 22 17 11 7 6 356 345 323 292 277 271 270 268 266 265 263
219 223 225 223 232 240 244 244 251 267 275 291 306 324 343 354 359 1 2 6 10 12 16 19 22 24 28 27 21 15 13 13 11 9 359 338 302 281 281 281 276 274 269
220 224 225 228 233 239 244 239 248 262 268 284 294 312 334 345 354 3 6 8 13 16 20 21 22 24 26 25 22 20 20 19 19 16 6 357 340 312 301 300 295 284 277
Height
5884 5885 5886 5887 5887 5888 5888 5889 5889 5889 5888 5888 5888 5888 5887 5887 5887 5886 5886 5886 5885 5885 5885 5885 5885 5885 5885 5886 5886 5886 5887 5888 5888 5889 5890 5891 5892 5893 5894 5895 5896 5897 5898
5884 5885 5886 5887 5887 5888 5888 5888 5889 5889 5888 5888 5888 5888 5887 5887 5886 5886 5885 5885 5885 5884 5884 5884 5884 5884 5885 5885 5885 5886 5886 5887 5887 5888 5889 5890 5891 5892 5893 5894 5895 5896 5897
5884 5885 5886 5887 5887 5888 5888 5888 5888 5888 5888 5888 5888 5888 5887 5887 5886 5885 5885 5884 5884 5884 5883 5883 5883 5883 5884 5884 5884 5884 5885 5886 5886 5887 5888 5889 5890 5891 5892 5894 5895 5896 5897
5884 5885 5885 5886 5887 5888 5888 5888 5888 5889 5888 5888 5888 5887 5887 5886 5885 5885 5884 5884 5883 5883 5882 5882 5882 5882 5883 5883 5883 5883 5884 5884 5885 5886 5887 5888 5889 5890 5891 5893 5894 5895 5897
5883 5884 5885 5886 5887 5887 5888 5888 5889 5889 5888 5888 5887 5887 5886 5886 5885 5884 5883 5883 5882 5882 5881 5881 5881 5881 5881 5881 5881 5882 5882 5883 5883 5884 5885 5886 5888 5889 5890 5892 5893 5894 5896
5883 5884 5885 5886 5886 5887 5887 5888 5889 5889 5888 5888 5887 5887 5886 5885 5884 5884 5883 5882 5881 5881 5880 5880 5879 5879 5879 5880 5880 5880 5881 5881 5882 5883 5884 5885 5886 5888 5889 5891 5892 5893 5895
5882 5883 5884 5885 5886 5887 5887 5888 5888 5888 5888 5888 5887 5886 5886 5885 5884 5883 5882 5881 5880 5879 5879 5878 5878 5877 5877 5878 5878 5878 5879 5880 5880 5881 5882 5884 5885 5886 5888 5889 5891 5892 5894
5882 5883 5884 5885 5886 5886 5887 5888 5888 5888 5888 5887 5887 5886 5885 5884 5883 5882 5881 5880 5879 5878 5877 5876 5876 5876 5876 5876 5876 5877 5877 5878 5879 5880 5881 5882 5884 5885 5886 5888 5890 5891 5893
5881 5882 5884 5884 5885 5886 5886 5887 5887 5887 5887 5887 5886 5885 5884 5883 5882 5881 5880 5879 5877 5876 5875 5874 5874 5874 5874 5874 5874 5875 5875 5876 5877 5878 5880 5881 5882 5884 5885 5887 5888 5890 5892
5880 5882 5883 5884 5885 5885 5886 5887 5887 5887 5887 5886 5886 5885 5884 5883 5882 5880 5879 5878 5876 5875 5874 5873 5872 5872 5872 5872 5872 5873 5873 5874 5875 5876 5878 5879 5881 5882 5884 5885 5887 5888 5890
5880 5881 5882 5883 5884 5885 5886 5886 5886 5886 5886 5886 5885 5884 5883 5882 5881 5880 5878 5877 5875 5873 5872 5871 5871 5870 5870 5870 5871 5871 5872 5873 5873 5875 5876 5877 5879 5880 5882 5883 5885 5886 5888
5879 5880 5881 5882 5883 5884 5885 5885 5886 5886 5886 5885 5884 5883 5882 5881 5880 5878 5877 5875 5874 5872 5871 5870 5869 5868 5868 5868 5869 5869 5870 5871 5872 5873 5874 5876 5877 5878 5880 5881 5883 5884 5886
5878 5879 5880 5881 5883 5884 5884 5885 5885 5885 5885 5884 5883 5882 5881 5880 5879 5877 5876 5874 5873 5871 5870 5868 5867 5867 5867 5866 5867 5867 5868 5869 5870 5872 5873 5874 5875 5877 5878 5880 5881 5883 5885
5877 5878 5879 5881 5882 5883 5883 5884 5884 5884 5884 5883 5882 5881 5880 5879 5878 5876 5875 5873 5871 5870 5868 5867 5866 5865 5865 5865 5865 5866 5866 5867 5869 5870 5871 5872 5874 5875 5876 5878 5879 5881 5883
5876 5878 5879 5880 5881 5882 5883 5883 5883 5883 5883 5882 5881 5880 5879 5878 5877 5875 5873 5872 5870 5868 5867 5866 5865 5864 5863 5863 5863 5864 5865 5866 5867 5868 5870 5871 5872 5873 5874 5876 5877 5879 5881
5875 5877 5878 5879 5880 5881 5882 5882 5882 5882 5882 5881 5880 5879 5878 5877 5876 5874 5872 5871 5869 5867 5865 5864 5863 5863 5862 5862 5862 5862 5863 5864 5865 5867 5868 5869 5870 5872 5873 5874 5876 5877 5879
5874 5876 5877 5879 5880 5880 5881 5882 5881 5881 5881 5880 5879 5878 5877 5876 5874 5873 5871 5870 5868 5866 5865 5863 5862 5861 5861 5861 5861 5861 5862 5863 5864 5865 5866 5868 5869 5870 5871 5873 5874 5875 5877
5873 5875 5876 5878 5879 5880 5880 5881 5881 5880 5880 5879 5878 5877 5876 5875 5874 5872 5870 5869 5867 5865 5864 5862 5861 5860 5860 5860 5860 5860 5861 5862 5863 5864 5865 5866 5867 5869 5870 5871 5872 5874 5875
5872 5874 5875 5877 5878 5879 5879 5880 5880 5880 5879 5878 5878 5877 5876 5874 5873 5871 5870 5868 5866 5865 5863 5862 5861 5860 5859 5859 5859 5859 5860 5861 5861 5862 5863 5864 5866 5867 5868 5869 5871 5872 5873
5871 5873 5874 5876 5877 5878 5879 5879 5879 5879 5878 5878 5877 5876 5875 5874 5873 5871 5870 5868 5866 5865 5863 5862 5860 5859 5859 5858 5858 5859 5859 5860 5860 5861 5862 5863 5864 5865 5866 5867 5869 5870 5872
5870 5872 5873 5875 5876 5877 5878 5878 5878 5878 5878 5877 5876 5876 5875 5874 5872 5871 5869 5868 5866 5865 5863 5862 5861 5859 5859 5858 5858 5858 5859 5859 5859 5860 5861 5862 5862 5863 5864 5866 5867 5868 5869
5868 5871 5872 5874 5875 5876 5877 5877 5877 5877 5877 5877 5876 5875 5874 5873 5872 5871 5869 5868 5866 5865 5864 5862 5861 5860 5859 5859 5858 5858 5858 5859 5859 5859 5859 5860 5861 5862 5863 5864 5865 5866 5867
5867 5869 5871 5873 5874 5875 5875 5876 5876 5876 5876 5876 5876 5875 5874 5873 5872 5871 5870 5868 5867 5865 5864 5863 5861 5860 5859 5859 5859 5859 5858 5858 5858 5859 5859 5859 5860 5861 5861 5862 5863 5864 5865
5866 5868 5870 5871 5872 5874 5874 5875 5876 5876 5876 5876 5875 5875 5874 5873 5872 5871 5870 5868 5867 5866 5864 5863 5862 5861 5860 5859 5859 5858 5858 5858 5858 5858 5859 5859 5859 5859 5860 5861 5861 5862 5862
5864 5866 5868 5870 5871 5872 5873 5874 5875 5875 5875 5875 5875 5874 5874 5873 5872 5871 5870 5869 5868 5866 5865 5864 5862 5861 5860 5860 5859 5859 5858 5858 5858 5858 5858 5858 5858 5859 5859 5859 5860 5860 5861
5862 5864 5866 5868 5869 5871 5872 5873 5874 5874 5874 5874 5874 5874 5873 5872 5872 5871 5870 5869 5868 5867 5866 5864 5863 5862 5861 5860 5860 5859 5859 5858 5858 5858 5858 5858 5858 5858 5858 5858 5858 5859 5859